User: anonymous   Login
Location: Unspecified
(42.0334°N, 93.6656°W)
Time: 11:48:21
(UTC-05:00)
Language:

Iridium 63 - Orbit

View from above orbital plane
View from above orbital plane
View from above satellite
View from above satellite

Ground track
Ground track

The orbit data is extracted from the following two-line orbital elements,

1 25286U 98021B   17142.85489382 +.00000112 +00000-0 +32736-4 0  9994
2 25286 086.4022 234.8852 0002325 099.8105 039.0240 14.34659296001135
Epoch (UTC): 22 May 2017 20:31:02
Eccentricity: 0.0002325
inclination: 86.4022°
perigee height: 774 km
apogee height: 778 km
right ascension of ascending node: 234.8852°
argument of perigee: 99.8105°
revolutions per day: 14.34659296
mean anomaly at epoch: 39.0240°
orbit number at epoch: 113

The dashed part of the orbit path shows where the satellite is in the earth's shadow,  

DLR